Фирсановка

Россия / Московская область     55°57′29″N   37°15′15″E
темп.,
°C
ветер,
м/с
пор.,
м/с
влажн.,
%
обл.,
%
осадки,
мм/ч
давл.,
гПа
погр.,
м
28 октября, чт
чт2800:00+5зюз51286100 0.0 1014486
03:00+4юз51392100 0.0 1012577
06:00+4ююз51393100 1.0 1009619
09:00+6юз51394100 2.1 1008631
12:00+8з5129280 0.4 1009792
15:00+8сз61185100 0.6 1012888
18:00+7с6989100 0.1 1016912
21:00+5с3882100 0.1 1020633
29 октября, пт
пт2900:00+5ссз2485100 0.0 1022155
03:00+5з1183100 0.0 102417
06:00+4ююз2586100 0.0 1024112
09:00+4ююз4983100 0.3 1025427
12:00+5ююз51384100 0.4 1024528
15:00+7юз51184100 0.4 1023561
18:00+7юз4119364 0.0 1023303
21:00+7зюз4129637 0.0 1024318
30 октября, сб
сб3000:00+7зюз4129542 0.0 1024304
03:00+7зюз4139592 0.0 1025312
06:00+7зюз5149427 0.0 1025341
09:00+8зюз5159565 0.0 1025427
12:00+12зюз6138181 0.0 1026548
15:00+12зюз512785 0.0 1026610
18:00+9юз512878 0.0 1026364
21:00+8зюз4138760 0.0 1027336
31 октября, вс
вс3100:00+7зюз4148443 0.0 1027342
03:00+6юз4128466 0.0 1027312
06:00+5юз4128710 0.0 1027271
09:00+5юз4128331 0.0 1027332
12:00+9юз512685 0.0 1026477
15:00+10юз512665 0.0 1025562
18:00+7ююз513785 0.0 1025347
21:00+6юз413835 0.0 1025349
1 ноября, пн
пн100:00+5юз414845 0.0 1024354
03:00+5юз413860 0.0 1024316
06:00+4юз413855 0.0 1024295
09:00+4юз411845 0.0 1024285
12:00+8юз48640 0.0 1023351
15:00+9ююз37640 0.0 1022380
18:00+6ююз36790 0.0 1022113
21:00+4ююз36810 0.0 1022109